(261886) = 2006 HP15

Discovered at Mount Lemmon on 2006-04-20 by Mt. Lemmon Survey.

Orbit

Orbit type: Main Belt

Note: WebGL enabled browser required.

epoch2022-01-21.0
epoch JD2459600.5
perihelion date2021-05-21.61711
perihelion JD2459356.11711
argument of perihelion (°)323.36626
ascending node (°)146.09505
inclination (°)2.72203
eccentricity0.1032165
perihelion distance (AU)2.6927345
Tisserand w.r.t. Jupiter3.2
ΔV w.r.t. Earth (km/sec)10.3
semimajor axis (AU)3.0026586
mean anomaly (°)46.29304
mean daily motion (°/day)0.18942830
aphelion distance (AU)3.313
period (years)5.2
P-vector [x]-0.33354581
P-vector [y]0.87582259
P-vector [z]0.34882945
Q-vector [x]-0.94236162
Q-vector [y]-0.32014736
Q-vector [z]-0.09726380
absolute magnitude16.4
phase slope0.15
uncertainty0
referenceMPO 696431
observations used213
oppositions11
arc length (days)5954
first opposition used2006
last opposition used2022
residual rms (arc-secs)0.85
perturbers coarse indicatorM-v
perturbers precise indicator003Ek
first observation date used2006-01-05.0
last observation date used2022-04-25.0
computer namePan
JD of orbit computation2456966.909099
perihelion JD uncertainty (days)3.0691E-04
argument of perihelion uncertainty (°)1.3846E-04
ascending node uncertainty (°)1.2764E-04
inclination uncertainty (°)6.8743E-06
eccentricity uncertainty 4.4126E-08
perihelion distance uncertainty (AU)1.5448E-07
Minimum Orbit Intersection Distances (in AU)
for orbit epoch: 2458200.5, reference: MPO407929
Mercury2.38031
Venus1.98025
Earth1.7138
Mars1.06723
Jupiter1.78639
Saturn6.36267
Uranus15.2961
Neptune26.7552

Observations

220 total observations over interval: 2006 01 05.38455 – 2022 04 25.294492
These data are available for download (format description).

Date (UT) J2000 RA J2000 Dec Magn Location Ref
2006 01 05.38455 09 46 32.01 +12 20 11.2 20.8 V G96 – Mt. Lemmon Survey MPS 181151
2006 01 05.39088 09 46 31.87 +12 20 12.0 20.5 V G96 – Mt. Lemmon Survey MPS 181151
2006 01 05.39719 09 46 31.72 +12 20 13.2 20.1 V G96 – Mt. Lemmon Survey MPS 181151
2006 01 05.40347 09 46 31.58 +12 20 13.8 20.3 V G96 – Mt. Lemmon Survey MPS 181151
2006 01 22.45890 09 37 36.98 +13 18 33.3 20.2 V G96 – Mt. Lemmon Survey MPS 181151
2006 01 22.46396 09 37 36.76 +13 18 35.0 20.3 V G96 – Mt. Lemmon Survey MPS 181151
2006 01 22.46903 09 37 36.55 +13 18 36.1 20.1 V G96 – Mt. Lemmon Survey MPS 181151
2006 01 22.47410 09 37 36.33 +13 18 37.6 20.2 V G96 – Mt. Lemmon Survey MPS 181151
2006 02 02.20242 09 29 27.74 +14 08 45.5 19.5 R 699 – Lowell Observatory-LONEOS MPS 181151
2006 02 02.22800 09 29 26.32 +14 08 52.4   699 – Lowell Observatory-LONEOS MPS 181151
2006 02 02.25356 09 29 25.19 +14 09 00.2   699 – Lowell Observatory-LONEOS MPS 181151
2006 02 02.27916 09 29 23.90 +14 09 06.6   699 – Lowell Observatory-LONEOS MPS 181151
2006 02 20.27502 09 14 49.92 +15 35 59.1 20.8 V G96 – Mt. Lemmon Survey MPS 181151
2006 02 20.28911 09 14 49.27 +15 36 03.0 20.5 V G96 – Mt. Lemmon Survey MPS 181151
2006 02 20.29603 09 14 48.91 +15 36 04.9 20.6 V G96 – Mt. Lemmon Survey MPS 181151
2006 02 20.31220 09 14 48.15 +15 36 09.4 20.4 V G96 – Mt. Lemmon Survey MPS 181151
2006 04 20.19051 09 07 39.50 +16 58 15.4 22.2 V G96 – Mt. Lemmon Survey MPS 169979
2006 04 20.20007 09 07 39.86 +16 58 13.8 21.1 V G96 – Mt. Lemmon Survey MPS 169979
2006 04 20.21008 09 07 40.15 +16 58 13.0 21.0 V G96 – Mt. Lemmon Survey MPS 169979
2006 04 20.21971 09 07 40.47 +16 58 11.3 20.9 V G96 – Mt. Lemmon Survey MPS 169979
2006 04 21.13176 09 08 11.61 +16 56 29.2 21.3 V G96 – Mt. Lemmon Survey MPS 169979
2006 04 21.13961 09 08 11.86 +16 56 28.7 20.8 V G96 – Mt. Lemmon Survey MPS 169979
2006 04 21.14745 09 08 12.12 +16 56 27.4 21.2 V G96 – Mt. Lemmon Survey MPS 169979
2006 04 21.15527 09 08 12.37 +16 56 26.7 21.5 V G96 – Mt. Lemmon Survey MPS 169979
2006 05 26.15308 09 38 07.40 +14 53 33.9 21.1 V G96 – Mt. Lemmon Survey MPS 181151
2006 05 26.15846 09 38 07.76 +14 53 32.2 21.4 V G96 – Mt. Lemmon Survey MPS 181151
2006 05 26.16397 09 38 08.08 +14 53 30.8 20.7 V G96 – Mt. Lemmon Survey MPS 181151
2006 05 26.16932 09 38 08.48 +14 53 29.4 21.0 V G96 – Mt. Lemmon Survey MPS 181151
2007 05 11.28747 15 10 47.02 -13 40 15.8 20.9 V G96 – Mt. Lemmon Survey MPS 295881
2007 05 11.29456 15 10 46.70 -13 40 14.8 20.8 V G96 – Mt. Lemmon Survey MPS 295881
2007 05 11.30164 15 10 46.38 -13 40 12.8 20.7 V G96 – Mt. Lemmon Survey MPS 295881
2007 05 11.30870 15 10 45.98 -13 40 11.4 21.1 V G96 – Mt. Lemmon Survey MPS 295881
2009 09 17.24260 01 12 18.84 +04 39 52.3 20.8 V 691 – Steward Observatory, Kitt Peak-Spacewatch MPS 295881
2009 09 17.26021 01 12 18.19 +04 39 47.5 20.5 V 691 – Steward Observatory, Kitt Peak-Spacewatch MPS 295881
2009 09 17.27780 01 12 17.60 +04 39 42.5 20.7 V 691 – Steward Observatory, Kitt Peak-Spacewatch MPS 295881
2009 09 29.21752 01 04 26.42 +03 39 46.4 20.7 V 691 – Steward Observatory, Kitt Peak-Spacewatch MPS 296966
2009 09 29.23543 01 04 25.64 +03 39 41.0 20.8 V 691 – Steward Observatory, Kitt Peak-Spacewatch MPS 296966
2009 09 29.25304 01 04 24.86 +03 39 35.2 20.5 V 691 – Steward Observatory, Kitt Peak-Spacewatch MPS 296966
2009 10 16.21765 00 51 40.39 +02 09 55.1 20.1 V G96 – Mt. Lemmon Survey MPS 299424
2009 10 16.22517 00 51 40.10 +02 09 52.5 19.4 V G96 – Mt. Lemmon Survey MPS 299424
2009 10 16.23252 00 51 39.70 +02 09 51.4 19.7 V G96 – Mt. Lemmon Survey MPS 299424
2009 10 16.23994 00 51 39.34 +02 09 48.7 20.4 V G96 – Mt. Lemmon Survey MPS 299424
2010 10 09.45395 07 40 13.90 +19 09 48.7 22.1 V G96 – Mt. Lemmon Survey MPS 351254
2010 10 09.45905 07 40 14.30 +19 09 48.5 21.3 V G96 – Mt. Lemmon Survey MPS 351254
2010 10 09.46414 07 40 14.62 +19 09 47.4 21.0 V G96 – Mt. Lemmon Survey MPS 351254
2010 10 09.46923 07 40 14.98 +19 09 46.8 20.6 V G96 – Mt. Lemmon Survey MPS 351254
2010 11 07.48656 08 04 56.53 +17 54 20.6 20.7 V G96 – Mt. Lemmon Survey MPS 355389
2010 11 07.49238 08 04 56.71 +17 54 19.5 21.0 V G96 – Mt. Lemmon Survey MPS 355389
2010 11 07.49819 08 04 56.89 +17 54 19.4 20.6 V G96 – Mt. Lemmon Survey MPS 355389
2010 11 07.50403 08 04 57.07 +17 54 18.5 21.1 V G96 – Mt. Lemmon Survey MPS 355389
2010 12 10.37922 08 10 05.26 +17 32 50.1 21.9 V G96 – Mt. Lemmon Survey MPS 358968
2010 12 10.38615 08 10 05.08 +17 32 50.6 21.1 V G96 – Mt. Lemmon Survey MPS 358968
2010 12 10.39315 08 10 04.98 +17 32 51.0 21.5 V G96 – Mt. Lemmon Survey MPS 358968
2010 12 10.40013 08 10 04.83 +17 32 51.3 21.1 V G96 – Mt. Lemmon Survey MPS 358968
2011 01 09.36239 07 51 22.69 +18 37 50.8 19.5 R H15 – ISON-NM Observatory, Mayhill MPS 365594
2011 01 09.37592 07 51 21.96 +18 37 53.3 19.6 R H15 – ISON-NM Observatory, Mayhill MPS 365594
2011 01 09.38946 07 51 21.24 +18 37 55.8 19.5 R H15 – ISON-NM Observatory, Mayhill MPS 365594
2011 01 09.40298 07 51 20.52 +18 37 58.4 19.8 R H15 – ISON-NM Observatory, Mayhill MPS 365594
2011 01 27.23051 07 35 45.67 +19 33 57.9 20.9 V G96 – Mt. Lemmon Survey MPS 368483
2011 01 27.23987 07 35 45.16 +19 33 59.9 20.9 V G96 – Mt. Lemmon Survey MPS 368483
2011 01 27.24919 07 35 44.73 +19 34 01.2 20.7 V G96 – Mt. Lemmon Survey MPS 368483
2011 01 27.25858 07 35 44.23 +19 34 02.9 20.9 V G96 – Mt. Lemmon Survey MPS 368483
2011 02 05.17898 07 29 02.65 +19 59 42.8 20.6 V 703 – Catalina Sky Survey MPS 371396
2011 02 05.18657 07 29 02.36 +19 59 46.1 19.9 V 703 – Catalina Sky Survey MPS 371396
2011 02 05.19412 07 29 01.93 +19 59 47.5 20.2 V 703 – Catalina Sky Survey MPS 371396
2011 02 05.20171 07 29 01.71 +19 59 48.8 20.4 V 703 – Catalina Sky Survey MPS 371396
2011 02 05.20931 07 29 01.42 +19 59 48.5 20.6 V 703 – Catalina Sky Survey MPS 371396
2012 04 27.40141 14 03 38.885 -08 34 24.34 20.1 i F51 – Pan-STARRS 1, Haleakala MPS 423608
2012 04 27.41277 14 03 38.331 -08 34 21.60 20.1 i F51 – Pan-STARRS 1, Haleakala MPS 423608
2012 04 27.42540 14 03 37.733 -08 34 18.32 20.3 w F51 – Pan-STARRS 1, Haleakala MPS 423608
2012 04 27.44036 14 03 37.015 -08 34 14.39 20.3 w F51 – Pan-STARRS 1, Haleakala MPS 423608
2012 04 27.45535 14 03 36.299 -08 34 10.37 20.4 w F51 – Pan-STARRS 1, Haleakala MPS 423608
2012 04 27.47033 14 03 35.583 -08 34 06.58 20.4 w F51 – Pan-STARRS 1, Haleakala MPS 423608
2012 04 28.40090 14 02 52.771 -08 30 06.97 20.5 i F51 – Pan-STARRS 1, Haleakala MPS 423608
2012 04 28.41235 14 02 52.217 -08 30 04.43 20.2 i F51 – Pan-STARRS 1, Haleakala MPS 423608
2012 05 25.19513 13 46 15.88 -07 06 12.0 20.8 V G96 – Mt. Lemmon Survey MPS 425892
2012 05 25.20312 13 46 15.70 -07 06 11.5 21.5 V G96 – Mt. Lemmon Survey MPS 425892
2012 05 25.21103 13 46 15.52 -07 06 10.8 21.1 V G96 – Mt. Lemmon Survey MPS 425892
2012 05 25.21902 13 46 15.27 -07 06 10.0 21.0 V G96 – Mt. Lemmon Survey MPS 425892
2014 08 30.49574 00 08 10.665 -01 05 00.76 20.9 w F51 – Pan-STARRS 1, Haleakala MPS 531192
2014 08 30.50678 00 08 10.274 -01 05 04.16 20.9 w F51 – Pan-STARRS 1, Haleakala MPS 531192
2014 08 30.51782 00 08 09.900 -01 05 07.11 21.0 w F51 – Pan-STARRS 1, Haleakala MPS 531192
2014 08 30.52889 00 08 09.501 -01 05 10.23 21.0 w F51 – Pan-STARRS 1, Haleakala MPS 531192
2014 09 12.47223 23 59 50.067 -02 11 29.10 20.2 i F51 – Pan-STARRS 1, Haleakala MPS 532838
2014 09 12.48370 23 59 49.551 -02 11 32.87 20.4 i F51 – Pan-STARRS 1, Haleakala MPS 532838
2014 09 12.49520 23 59 49.053 -02 11 36.57 20.1 i F51 – Pan-STARRS 1, Haleakala MPS 532838
2014 09 12.50667 23 59 48.549 -02 11 40.40 20.4 i F51 – Pan-STARRS 1, Haleakala MPS 532838
2014 09 19.33536 23 54 50.481 -02 49 23.59 20.6 w F51 – Pan-STARRS 1, Haleakala MPS 536066
2014 09 19.34681 23 54 49.959 -02 49 27.44 20.5 w F51 – Pan-STARRS 1, Haleakala MPS 536066
2014 09 19.35823 23 54 49.434 -02 49 31.20 20.5 w F51 – Pan-STARRS 1, Haleakala MPS 536066
2014 09 19.36969 23 54 48.906 -02 49 35.06 20.5 w F51 – Pan-STARRS 1, Haleakala MPS 536066
2014 10 02.28199 23 45 20.83 -03 58 40.2 21.0 V G96 – Mt. Lemmon Survey MPS 538529
2014 10 02.28706 23 45 20.58 -03 58 41.7 20.6 V G96 – Mt. Lemmon Survey MPS 538529
2014 10 02.29213 23 45 20.35 -03 58 42.7 21.0 V G96 – Mt. Lemmon Survey MPS 538529
